422P/Christensen (2022)

Japanese version
Home page
Updated on September 18, 2021

---------------------------------------------------------------------

* Profile

Designation 422P/2021 L1
Recovery Date June 5, 2021
Magnitude 18.6 mag
Recoverer C. Jacques (Belo Horizonte, Brazil)

* Pictures

* Orbital Elements

Epoch 2022 Jan. 21.0 TT = JDT 2459600.5                                         
T 2022 Jan. 13.82641 TT                                 Rudenko                 
q   3.1051885            (2000.0)            P               Q                  
n   0.06201822     Peri.  305.15378     +0.83658126     +0.39975263             
a   6.3210592      Node    36.04818     +0.05015259     +0.62502917             
e   0.5087550      Incl.   39.53736     -0.54554240     +0.67047473             
P  15.9                                                                         
From 170 observations 2006 Sept. 22-2021 June 15, mean residual 1".0.           

* Magnitudes Graph

        m1 = 7.0 + 5 log d + 15.0 log r

---------------------------------------------------------------------

The orbital elements are published on M.P.E.C. 2021-M34.
The magnitudes graphs are made with Comet for Windows.

---------------------------------------------------------------------

Copyright(C) Seiichi Yoshida (comet@aerith.net). All rights reserved.